This is the latest recevied weather packets stored in our database for station/object N7AWM. If no packets are shown the sender has not sent any weather packets the latest 10 day(s).
| Time | Temp. | Humidity | Pressure | Rain* | Wind** | Luminosity | Snow |
|---|---|---|---|---|---|---|---|
| 1777536519 | 10° C | 64% | 1019.5 hPa | 0 mm | - | - | - |
| 1777535679 | 10.56° C | 63% | 1019.5 hPa | 0 mm | - | - | - |
| 1777534840 | 10.56° C | 64% | 1019.4 hPa | 0 mm | - | - | - |
| 1777533999 | 10° C | 65% | 1019.4 hPa | 0 mm | - | - | - |
| 1777533160 | 10° C | 64% | 1019.4 hPa | 0 mm | - | - | - |
| 1777532320 | 10.56° C | 64% | 1019.3 hPa | 0 mm | - | - | - |
| 1777531480 | 10° C | 64% | 1019.4 hPa | 0 mm | - | - | - |
| 1777530673 | 11.67° C | 58% | 1019.2 hPa | 0 mm | - | - | - |
| 1777530640 | 11.67° C | 58% | 1019.2 hPa | 0 mm | - | - | - |
| 1777529800 | 11.67° C | 59% | 1019.2 hPa | 0 mm | - | - | - |
| 1777528960 | 12.78° C | 56% | 1019.1 hPa | 0 mm | - | - | - |
| 1777528120 | 12.22° C | 58% | 1019.1 hPa | 0 mm | - | - | - |
| 1777527280 | 12.22° C | 58% | 1019.1 hPa | 0 mm | - | - | - |
| 1777526440 | 12.78° C | 58% | 1019.1 hPa | 0 mm | - | - | - |
| 1777525600 | 12.22° C | 59% | 1019.1 hPa | 0 mm | - | - | - |
| 1777524760 | 12.78° C | 57% | 1019.1 hPa | 0 mm | - | - | - |
| 1777523920 | 12.78° C | 57% | 1019.1 hPa | 0 mm | - | - | - |
| 1777523080 | 13.33° C | 56% | 1019.1 hPa | 0 mm | - | - | - |
| 1777522289 | 13.89° C | 54% | 1019.1 hPa | 0 mm | - | - | - |
| 1777522240 | 13.89° C | 54% | 1019.1 hPa | 0 mm | - | - | - |
| 1777521400 | 13.33° C | 56% | 1019 hPa | 0 mm | - | - | - |
| 1777520561 | 13.89° C | 55% | 1018.8 hPa | 0 mm | - | - | - |
| 1777519721 | 13.33° C | 58% | 1018.7 hPa | 0 mm | - | - | - |
| 1777518881 | 12.78° C | 61% | 1018.7 hPa | 0 mm | - | - | - |
| 1777518101 | 13.33° C | 58% | 1018.7 hPa | 0 mm | - | - | - |
* Rain latest hour (hover to see other rain measurements)
** Current wind speed in m/s (hover to see current wind gust speed)